Wetbulb
59.47 59.34 59.58 59.26 59.28 59.15 59.33 59.52 59.75 59.56 59.92 60.23 60.18 60.26 60.93 62.10 61.46 61.87 62.53 69.82 73.75 75.87 76.37 75.72 75.01 74.86 74.69 72.51 71.31 70.33 62.22 60.10 60.03 61.11 63.23 67.11 65.66 68.44 69.33 66.64 67.85 69.95 69.43 70.14 70.96
59.18 59.19 58.99 59.00 59.31 59.22 58.98 59.57 59.57 59.38 59.55 59.76 59.71 60.00 60.52 61.85 61.65 63.21 72.77 75.32 75.17 76.27 74.40 73.16 72.00 73.34 71.71 69.34 65.00 64.89 62.66 61.04 65.71 65.85 64.79 67.12 66.10 66.68 66.18 65.80 66.38 68.19 70.37 70.65 70.82
58.81 58.90 58.75 58.91 58.95 58.87 58.61 59.14 59.10 59.11 59.24 59.32 59.55 60.09 60.39 62.15 61.20 64.93 75.96 76.05 76.20 75.90 75.72 74.32 74.19 73.48 70.04 66.07 63.91 64.67 61.23 64.74 66.74 66.86 67.75 67.07 66.00 68.04 65.87 64.31 66.64 66.69 68.17 69.24 69.78
58.72 58.97 58.63 58.53 58.71 58.79 58.76 58.84 58.68 58.87 58.95 59.11 59.35 59.81 61.19 62.03 59.25 66.99 76.14 75.54 76.66 75.65 75.39 73.94 71.84 68.00 66.64 65.37 67.45 62.53 66.59 65.93 66.81 67.61 67.25 66.28 67.06 66.13 66.52 66.47 69.20 69.46 69.64 69.28 69.10
59.17 58.96 58.79 58.66 58.46 58.78 58.79 58.44 58.54 58.47 58.60 58.85 59.25 59.97 62.62 59.67 64.66 69.66 76.75 75.23 73.32 74.54 73.91 71.65 68.09 65.32 63.39 66.38 65.58 64.07 65.59 66.70 67.53 67.84 67.44 67.52 66.00 66.13 66.55 68.91 70.00 69.92 69.61 68.82 69.19
58.65 58.33 58.36 57.96 58.01 58.48 58.46 58.25 58.20 58.26 58.77 59.16 59.39 60.01 59.82 59.57 70.35 72.06 73.92 72.71 74.63 74.84 73.19 72.13 70.42 66.93 65.84 63.40 64.66 66.38 65.78 66.20 67.54 66.75 67.11 65.69 65.89 66.69 66.95 69.10 69.23 69.05 68.74 69.13 69.35
58.72 58.12 58.00 57.75 58.09 57.88 57.76 58.02 57.97 58.39 59.25 59.79 60.22 63.66 62.43 63.35 71.71 73.67 74.38 74.04 75.31 74.93 71.13 72.49 72.78 70.43 69.99 64.98 67.54 66.42 63.20 65.32 66.06 66.69 65.74 66.90 63.24 64.15 67.73 68.66 67.84 68.12 68.87 69.28 69.77
58.42 57.64 57.65 57.64 57.29 57.39 57.42 57.45 57.92 58.82 59.62 60.50 61.04 63.02 62.82 71.05 73.38 73.45 74.41 74.37 75.62 74.98 73.42 74.29 73.96 71.09 69.32 68.46 67.31 63.34 62.28 57.05 64.43 65.72 66.28 65.22 56.02 63.98 68.37 67.70 66.95 67.98 68.83 69.04 69.43
57.50 57.30 57.32 57.02 56.98 57.30 57.16 57.05 58.57 60.82 61.09 61.37 61.71 61.90 62.88 73.46 70.20 72.89 74.58 72.44 73.14 73.74 74.15 73.89 72.23 68.70 68.98 64.44 61.59 61.63 56.08 58.55 61.06 65.46 65.21 64.28 56.27 62.70 68.70 67.68 66.78 67.58 68.16 68.77 69.24
57.13 56.98 57.00 56.54 56.91 56.80 56.51 56.59 60.45 59.98 61.11 63.99 63.35 61.13 65.20 67.26 70.45 72.40 74.22 73.37 71.35 71.41 70.31 69.85 68.94 65.33 64.35 62.59 53.94 54.52 55.24 57.73 56.00 62.24 65.27 62.59 61.56 65.35 67.79 66.96 67.02 67.08 68.20 68.38 68.81
57.36 57.21 56.43 56.53 56.58 56.18 57.56 61.34 58.48 58.76 59.81 61.18 61.97 62.96 67.90 71.54 73.00 71.82 72.22 71.63 70.51 69.20 62.79 66.35 62.60 60.64 62.36 62.37 60.35 59.74 59.61 58.93 62.13 63.61 62.89 62.10 61.87 64.22 62.77 65.62 66.03 66.49 67.36 67.92 68.46
57.10 56.84 56.19 56.60 56.18 56.00 57.76 63.31 60.67 61.10 59.55 61.04 62.20 66.27 71.74 72.25 68.30 70.01 72.41 68.27 67.49 63.29 64.42 62.73 58.05 63.11 65.26 63.73 61.99 60.86 57.06 59.50 62.18 63.40 62.69 62.44 62.05 64.33 66.41 67.67 66.72 66.56 67.25 67.73 68.40
56.52 55.96 56.45 56.04 55.60 56.34 60.08 62.15 63.13 62.97 58.29 61.24 62.16 65.71 69.97 70.76 67.33 67.49 70.58 69.15 66.29 59.72 59.83 57.62 60.26 65.69 63.92 63.09 61.57 57.86 57.68 59.17 60.06 62.47 65.11 61.69 61.56 58.13 63.48 67.04 68.50 67.91 68.80 68.80 68.43
55.82 55.98 55.86 55.13 53.84 62.35 60.43 63.48 63.12 62.63 54.30 56.65 59.89 64.15 70.64 70.14 66.72 71.16 72.15 69.48 65.70 58.16 61.80 62.70 66.24 64.22 62.27 61.00 61.35 56.54 59.92 59.29 59.26 59.09 55.72 60.97 53.16 56.16 59.72 62.85 66.36 67.29 68.21 68.35 68.80
55.60 55.52 55.59 53.28 60.46 61.45 62.64 63.36 62.48 60.65 46.57 57.21 60.57 68.55 70.87 67.75 67.64 68.47 72.00 69.29 65.15 64.21 63.31 60.77 61.90 62.78 60.97 61.57 62.65 59.59 61.03 59.70 59.55 59.58 59.56 55.99 55.50 58.12 59.69 59.22 60.70 66.19 67.56 68.49 69.33
55.17 54.60 54.99 58.31 61.12 65.00 64.83 62.97 59.60 50.71 46.26 53.52 60.05 59.64 61.69 66.35 64.05 67.15 68.94 70.52 69.58 65.85 65.09 64.53 66.63 64.78 63.80 64.30 63.54 63.93 61.94 62.11 61.40 58.36 53.70 55.23 53.65 55.10 58.31 59.74 60.08 65.63 67.58 68.22 69.31
54.20 54.00 54.99 64.24 60.38 63.94 63.46 59.39 50.42 47.38 55.69 52.12 54.13 56.86 58.44 61.12 61.87 60.97 63.56 65.10 62.43 59.46 58.97 61.82 63.19 65.07 65.39 62.54 63.84 62.82 59.82 53.43 52.58 49.70 50.23 57.25 51.83 52.91 58.62 59.97 62.95 65.37 65.90 68.43 69.80
53.05 53.37 58.77 63.71 65.63 64.01 61.48 54.71 48.36 51.82 52.23 55.13 53.83 54.16 55.43 57.89 59.03 60.13 57.71 59.46 63.58 62.18 58.86 57.28 54.84 61.73 64.35 59.54 57.87 60.59 59.46 53.68 49.14 48.98 49.92 55.50 50.72 54.69 60.72 62.86 64.71 68.29 68.89 69.40 69.41
52.05 63.15 63.88 63.08 63.91 63.23 58.12 49.93 50.89 52.90 54.37 52.84 53.35 52.21 53.89 56.00 57.75 57.20 56.55 55.48 60.05 61.37 57.82 55.75 55.85 59.31 62.93 63.20 62.89 57.79 54.65 58.41 53.69 54.93 52.04 52.73 56.17 60.11 60.52 60.18 65.80 67.29 68.61 69.42 70.91
64.06 65.49 62.30 63.28 63.43 59.67 55.14 50.26 53.75 55.28 54.65 54.30 50.50 52.46 50.48 53.87 54.31 54.73 53.51 56.53 55.60 57.60 63.46 57.58 50.62 57.91 61.13 61.34 58.33 55.02 56.78 51.05 52.12 48.27 47.24 52.02 53.46 53.01 57.55 58.41 55.58 60.83 66.68 68.60 69.47
63.16 62.23 62.62 64.31 62.48 57.36 52.48 54.76 55.25 56.10 55.70 53.44 52.84 52.68 53.09 52.69 54.03 53.22 53.20 54.82 56.54 56.58 56.98 55.14 53.52 52.19 55.23 54.62 53.00 53.65 52.13 53.34 52.47 50.67 48.06 46.75 49.88 60.08 60.46 57.93 58.72 59.37 66.09 65.78 66.19
65.70 59.68 63.13 63.25 55.99 57.59 55.37 56.87 51.62 55.52 56.71 54.67 55.10 54.00 53.41 53.79 52.97 53.01 52.27 54.20 56.90 56.80 52.83 55.00 52.32 49.37 50.84 55.32 56.63 55.31 53.36 53.11 49.09 49.47 50.62 49.77 51.42 64.80 64.14 63.69 65.11 64.64 65.00 64.34 64.28
63.74 60.85 63.62 61.96 55.58 57.24 57.32 57.21 56.08 55.11 54.85 55.31 54.25 55.35 55.52 53.62 52.02 53.60 54.10 56.13 56.41 55.42 54.83 55.25 52.30 48.09 49.61 52.24 54.58 53.44 54.27 53.76 53.07 52.20 49.86 46.62 50.34 65.51 66.54 64.92 64.99 63.64 62.34 62.34 63.27
64.70 58.76 60.93 61.48 61.67 59.19 58.30 57.26 56.14 57.82 55.37 56.39 55.64 56.26 54.76 53.88 55.43 53.25 53.90 55.82 56.31 55.40 61.17 60.72 51.87 49.56 45.72 49.30 52.00 50.81 52.57 53.69 52.67 49.43 49.81 49.98 55.36 61.38 63.71 62.58 63.74 63.00 62.26 62.32 62.60
65.19 61.44 61.88 58.90 59.96 59.74 59.73 58.53 56.55 55.93 57.46 56.62 55.65 55.13 54.32 52.72 53.69 53.61 55.16 55.65 55.94 61.21 56.94 55.00 50.49 51.97 52.31 52.76 52.32 51.52 51.44 51.97 51.27 51.64 48.76 50.95 51.48 58.67 63.51 62.16 63.00 63.80 63.99 63.63 63.18
61.44 60.41 62.33 59.74 60.55 59.02 55.48 57.60 56.65 57.74 57.43 56.59 55.53 56.00 56.31 54.63 55.11 53.82 55.74 56.57 56.04 57.41 57.11 57.70 53.60 54.46 52.17 53.87 53.22 51.53 52.24 52.77 52.71 52.79 52.18 52.94 52.76 63.51 64.87 64.18 63.79 63.83 64.09 63.57 64.33
63.91 65.21 62.63 56.99 58.44 58.13 59.10 60.24 58.95 59.83 59.80 60.01 58.17 57.17 56.49 58.35 59.60 59.54 59.38 58.65 57.67 56.36 55.54 55.15 53.88 52.52 48.97 53.04 53.11 50.10 53.37 53.71 54.56 54.42 53.59 50.81 57.41 61.25 53.78 54.30 61.18 63.56 64.44 64.65 64.70
MSLP
1015.14 1014.81 1014.66 1014.32 1013.90 1013.61 1013.29 1012.93 1012.76 1012.49 1012.24 1012.00 1011.71 1011.51 1011.19 1010.79 1009.87 1009.21 1007.22 1006.46 1006.07 1006.33 1006.94 1005.89 1005.64 1005.13 1004.48 1004.20 1005.45 1007.99 1007.65 1004.79 1004.31 1003.80 1002.75 1002.41 1002.61 1003.10 1003.58 1004.24 1004.60 1005.18 1006.54 1007.82 1009.04
1015.14 1014.74 1014.61 1014.28 1013.80 1013.45 1013.26 1012.82 1012.62 1012.45 1012.16 1011.92 1011.65 1011.42 1011.20 1010.91 1009.48 1007.34 1005.86 1005.87 1006.21 1006.50 1006.53 1005.56 1005.03 1004.89 1004.33 1004.58 1006.28 1007.87 1006.36 1004.59 1003.35 1003.17 1002.29 1002.38 1002.67 1003.35 1003.90 1004.43 1005.07 1005.48 1006.84 1008.25 1009.05
1015.07 1014.67 1014.52 1014.23 1013.68 1013.39 1013.16 1012.76 1012.43 1012.32 1012.08 1011.78 1011.62 1011.31 1011.16 1010.71 1008.53 1005.63 1005.92 1005.84 1006.20 1006.33 1005.70 1005.40 1005.28 1004.69 1004.37 1005.26 1007.79 1007.33 1005.87 1004.10 1003.25 1002.66 1002.00 1002.35 1002.67 1002.74 1003.45 1004.13 1004.82 1005.83 1007.15 1008.28 1008.89
1014.94 1014.55 1014.32 1014.16 1013.61 1013.23 1012.94 1012.75 1012.31 1012.05 1012.01 1011.69 1011.47 1011.28 1011.04 1009.88 1006.72 1005.53 1006.08 1005.92 1006.15 1006.11 1005.63 1004.37 1004.40 1005.90 1005.46 1005.98 1005.85 1005.77 1004.56 1002.54 1002.60 1002.12 1002.02 1002.56 1002.83 1002.78 1003.66 1003.78 1004.69 1005.93 1007.14 1007.98 1008.57
1014.80 1014.44 1014.08 1013.91 1013.53 1012.93 1012.70 1012.63 1012.25 1011.78 1011.77 1011.68 1011.33 1011.13 1010.39 1008.27 1005.33 1005.58 1006.07 1006.20 1006.17 1006.01 1004.88 1003.96 1005.22 1006.92 1006.29 1005.39 1004.98 1004.29 1002.34 1002.35 1002.01 1002.09 1002.56 1002.86 1002.94 1003.47 1003.92 1004.01 1004.76 1006.03 1007.08 1007.69 1008.07
1014.63 1014.33 1013.89 1013.62 1013.36 1012.68 1012.45 1012.37 1012.07 1011.71 1011.37 1011.50 1011.37 1011.22 1009.60 1006.11 1004.29 1005.06 1005.44 1005.93 1005.17 1004.79 1003.67 1004.25 1004.37 1004.68 1005.98 1004.61 1004.79 1003.34 1002.28 1002.58 1002.44 1002.78 1003.06 1003.54 1004.04 1004.19 1004.62 1004.58 1005.00 1006.13 1006.97 1007.40 1007.57
1014.50 1014.17 1013.74 1013.34 1013.09 1012.56 1012.22 1012.02 1011.81 1011.39 1011.25 1011.17 1011.16 1010.48 1007.76 1004.57 1003.83 1004.59 1004.85 1004.67 1004.06 1003.85 1003.45 1003.52 1003.56 1003.63 1004.14 1004.13 1003.37 1002.93 1002.31 1002.86 1002.94 1003.12 1003.25 1003.61 1004.24 1004.82 1004.98 1005.19 1005.61 1006.23 1006.71 1007.04 1007.18
1014.30 1013.96 1013.54 1013.12 1012.84 1012.38 1012.14 1011.65 1011.34 1011.15 1010.90 1010.89 1010.91 1009.50 1005.42 1003.49 1003.35 1003.85 1004.11 1003.67 1003.78 1004.19 1004.30 1003.74 1002.99 1002.99 1003.12 1003.43 1002.70 1002.84 1004.05 1004.35 1003.37 1003.26 1003.65 1004.92 1006.48 1005.88 1005.34 1005.49 1005.85 1006.10 1006.39 1006.75 1007.03
1014.11 1013.74 1013.35 1012.98 1012.60 1012.14 1011.91 1011.42 1010.88 1010.65 1010.64 1010.61 1010.24 1008.30 1004.32 1003.84 1003.39 1003.40 1003.42 1003.28 1003.71 1004.10 1003.94 1003.44 1003.46 1002.87 1002.99 1003.17 1003.55 1005.33 1005.82 1005.14 1004.10 1002.93 1003.86 1004.86 1007.04 1006.09 1005.60 1005.08 1005.31 1005.74 1006.09 1006.40 1006.84
1013.88 1013.50 1013.18 1012.79 1012.39 1011.94 1011.58 1011.31 1010.49 1010.48 1010.28 1009.47 1008.11 1006.83 1003.90 1002.94 1002.80 1003.03 1003.11 1003.12 1003.63 1003.78 1003.80 1003.38 1002.83 1002.51 1002.56 1003.77 1006.55 1007.09 1006.66 1005.71 1005.15 1002.91 1002.67 1003.47 1005.19 1005.11 1005.06 1004.55 1004.59 1004.79 1005.33 1005.90 1006.30
1013.58 1013.25 1013.02 1012.56 1012.21 1011.88 1011.22 1010.25 1009.84 1008.80 1007.44 1005.09 1003.81 1002.84 1002.14 1002.05 1002.61 1002.80 1002.92 1003.42 1003.86 1003.89 1005.34 1004.93 1004.36 1003.38 1003.38 1004.52 1006.12 1006.29 1006.14 1005.28 1003.64 1003.20 1002.58 1003.06 1003.93 1004.47 1005.16 1004.43 1003.55 1003.67 1004.43 1005.18 1005.71
1013.35 1012.99 1012.71 1012.32 1012.03 1011.80 1011.43 1007.63 1004.67 1003.97 1004.21 1003.95 1002.59 1001.76 1001.36 1002.02 1002.36 1002.51 1002.89 1003.39 1003.72 1005.63 1006.11 1006.28 1005.39 1003.96 1003.39 1003.79 1004.39 1004.78 1005.91 1004.71 1003.63 1003.04 1002.52 1002.76 1003.07 1004.00 1004.25 1003.31 1002.76 1002.61 1003.27 1004.35 1005.03
1013.07 1012.65 1012.38 1012.13 1011.80 1011.30 1008.68 1005.79 1004.28 1003.50 1002.51 1001.91 1001.88 1001.10 1001.41 1002.02 1001.73 1002.05 1002.71 1002.92 1004.64 1006.90 1007.36 1007.54 1005.14 1003.35 1002.64 1002.25 1002.85 1005.96 1006.29 1004.90 1003.53 1002.84 1002.82 1004.02 1004.24 1005.07 1004.45 1002.30 1001.75 1002.51 1002.43 1003.42 1004.22
1012.70 1012.24 1012.05 1011.85 1011.78 1007.42 1006.36 1004.54 1004.03 1003.55 1002.19 1000.85 1001.06 1000.44 1000.92 1001.28 1000.86 1001.20 1002.22 1002.28 1005.05 1007.86 1007.87 1006.27 1003.25 1002.25 1001.26 1001.36 1002.58 1004.18 1004.64 1004.53 1004.21 1003.24 1003.79 1004.55 1006.52 1005.96 1006.61 1004.70 1001.48 1001.99 1001.90 1002.47 1003.39
1012.21 1011.83 1011.70 1011.91 1009.69 1005.60 1004.34 1004.18 1003.86 1003.48 1000.99 1000.52 1000.20 999.70 1000.27 1000.90 1000.03 1000.66 1001.25 1001.88 1002.45 1004.01 1005.99 1005.06 1003.17 1001.65 1001.01 1000.81 1000.84 1002.59 1003.24 1003.12 1003.10 1003.06 1002.52 1006.51 1006.98 1007.66 1007.42 1005.53 1004.85 1001.82 1001.67 1001.64 1002.46
1011.81 1011.43 1011.40 1010.88 1009.01 1005.62 1004.37 1004.05 1004.00 1002.74 999.99 999.57 999.86 1000.17 1000.17 1000.48 1000.00 1000.01 1000.79 1001.63 1001.94 1002.37 1002.56 1002.03 1001.48 1001.08 1000.32 1000.18 1000.02 1000.64 1001.64 1001.40 1001.25 1001.97 1003.42 1006.31 1007.37 1008.50 1008.21 1007.02 1004.84 1001.76 1000.93 1001.16 1001.78
1011.50 1011.07 1011.12 1008.46 1005.53 1004.45 1004.35 1003.93 1002.79 1000.72 999.47 998.98 999.25 999.80 999.93 999.89 999.93 999.91 1000.17 1000.69 1001.06 1001.37 1000.94 1000.91 1000.36 1000.13 1000.23 1000.03 999.54 999.80 999.80 999.68 1001.18 1001.98 1004.34 1005.26 1006.52 1008.26 1007.78 1006.01 1003.64 1001.55 1001.09 1001.48 1001.92
1011.11 1010.96 1009.00 1007.61 1005.87 1005.15 1004.46 1003.51 1001.58 999.14 998.74 999.04 998.80 999.18 999.40 999.31 999.35 999.39 1000.00 999.90 999.96 1000.15 1000.22 1000.70 1000.49 999.95 1000.04 1002.00 1003.22 1000.37 1000.02 999.50 999.57 1000.23 1003.36 1004.98 1004.93 1006.27 1006.74 1005.25 1004.90 1002.99 1003.04 1003.06 1003.28
1010.87 1009.32 1007.34 1005.75 1005.45 1005.21 1004.26 1002.38 1000.35 999.27 999.16 999.14 998.85 998.57 998.62 998.76 998.73 998.68 998.93 999.11 999.07 999.19 999.73 1001.68 1001.35 1002.99 1000.42 1001.21 1000.30 999.22 998.92 998.41 998.58 999.32 1000.02 1002.67 1004.19 1004.78 1005.70 1007.34 1005.85 1005.43 1004.98 1005.02 1005.13
1009.77 1007.16 1005.12 1004.94 1004.97 1004.81 1003.82 1001.93 1000.35 1000.10 1000.19 999.82 999.19 998.70 998.32 998.02 998.26 998.22 998.57 998.28 998.62 998.90 999.52 1001.82 1002.23 1000.92 999.83 999.11 998.44 998.97 998.80 998.54 998.58 999.14 999.74 999.76 1000.86 1002.48 1004.88 1008.38 1008.34 1008.47 1007.92 1007.53 1007.66
1009.01 1005.49 1004.40 1004.41 1004.52 1004.13 1002.60 1000.77 1000.29 1000.38 1000.81 1000.23 999.62 999.03 998.44 998.17 997.90 997.97 998.14 998.30 998.28 998.57 999.35 1000.13 1000.52 999.68 998.68 998.07 997.76 997.59 997.74 998.09 998.23 998.76 998.92 999.18 999.06 999.49 1003.32 1006.20 1006.75 1007.35 1008.37 1009.04 1009.34
1007.59 1004.20 1003.98 1004.09 1003.83 1002.68 1001.64 1001.06 1001.41 1001.04 1000.69 1000.69 1000.23 1000.00 999.41 999.02 998.62 998.21 998.19 998.42 998.59 998.73 999.80 1000.18 1000.20 999.60 998.78 998.19 997.68 997.29 997.53 997.55 997.70 998.24 998.45 998.90 999.75 1000.31 1002.53 1005.24 1006.42 1008.40 1009.95 1010.27 1010.86
1008.03 1004.12 1003.70 1003.66 1002.51 1001.37 1000.96 1001.35 1001.37 1001.10 1000.80 1000.49 1000.27 1000.07 1000.08 1000.01 999.79 999.32 999.12 999.55 1000.03 1000.29 1001.22 1000.95 1000.64 999.83 999.14 998.58 998.11 998.00 997.65 997.74 998.18 998.46 998.80 999.39 1000.28 1002.04 1003.90 1006.40 1008.21 1008.89 1010.43 1011.37 1012.04
1008.31 1003.96 1003.31 1003.27 1002.75 1002.23 1001.54 1001.45 1001.29 1001.34 1001.46 1001.07 1000.96 1000.64 1000.71 1000.42 1000.21 1000.06 999.87 999.50 1000.09 1000.87 1001.80 1002.01 1001.60 1001.28 1000.65 999.61 999.52 999.52 998.96 998.84 999.08 999.06 999.07 999.28 1000.69 1002.36 1004.13 1006.73 1008.97 1010.27 1010.90 1011.86 1012.53
1007.55 1004.78 1004.45 1002.94 1002.58 1002.74 1002.58 1002.33 1001.78 1001.13 1001.46 1001.47 1001.45 1001.10 1001.04 1000.70 1000.39 1000.04 1000.03 1000.09 1000.33 1000.88 1001.69 1002.16 1002.00 1001.93 1001.49 1001.00 1000.45 1000.55 1000.24 999.94 999.86 999.90 1000.02 1000.40 1000.90 1002.27 1004.21 1006.86 1009.04 1011.38 1010.75 1011.09 1011.91
1008.57 1007.31 1006.11 1004.46 1003.90 1003.80 1003.13 1002.65 1002.33 1001.85 1002.01 1001.78 1001.40 1001.40 1001.18 1000.90 1000.93 1000.74 1000.55 1000.60 1000.67 1001.25 1001.38 1001.62 1001.73 1001.98 1001.73 1001.42 1001.10 1000.52 1000.31 1000.31 1000.38 1000.38 1000.66 1001.26 1002.11 1004.05 1006.34 1007.78 1008.80 1010.85 1010.42 1010.64 1011.19
1010.64 1008.88 1007.56 1005.41 1004.16 1003.64 1003.12 1003.15 1003.20 1003.20 1003.09 1002.55 1002.08 1002.03 1001.87 1002.20 1002.04 1001.75 1001.55 1001.52 1001.67 1001.66 1001.75 1002.04 1002.29 1002.72 1002.33 1002.18 1001.55 1000.96 1000.25 999.91 999.95 1000.05 1000.88 1001.80 1003.26 1005.65 1008.42 1008.95 1011.79 1010.74 1009.84 1009.76 1010.00
Wind_Speed
14 14 13 13 13 12 12 12 11 11 12 12 13 12 13 14 17 8 10 6 3 12 3 11 6 10 10 15 9 14 5 6 4 3 14 12 12 11 15 13 11 15 19 20 19
14 14 13 13 13 12 12 13 12 11 12 12 12 12 12 12 9 14 7 11 12 11 9 7 5 5 9 8 8 7 7 3 3 2 9 12 15 14 11 12 10 12 22 20 18
14 14 14 13 14 13 12 13 12 11 12 12 12 12 12 12 10 1 4 13 11 12 16 5 6 13 13 11 2 4 5 12 13 10 9 15 12 13 13 13 10 20 19 19 17
14 14 14 13 14 13 13 12 13 13 11 12 11 11 11 7 3 7 7 10 9 12 14 11 2 14 9 5 13 9 22 8 11 8 10 11 8 16 8 9 15 19 20 18 17
14 15 15 14 14 14 13 11 12 13 11 10 11 10 7 8 5 11 8 8 11 12 17 4 16 1 4 11 13 10 12 13 10 12 11 8 8 8 7 7 18 19 18 17 16
16 15 15 15 13 14 13 12 12 13 13 9 8 9 7 12 13 16 14 13 13 14 4 1 5 7 4 2 15 12 13 10 7 12 13 11 9 8 8 9 18 18 17 16 16
15 15 15 15 13 14 14 13 12 13 11 9 6 7 10 10 12 14 15 15 15 14 3 5 8 9 14 7 7 12 10 11 9 11 5 10 6 5 10 11 14 16 15 14 14
16 16 15 15 14 14 13 15 14 12 11 8 5 7 9 4 9 13 14 12 6 9 7 12 9 13 9 15 13 7 10 7 4 7 13 12 11 20 8 13 13 14 14 13 13
17 16 15 15 14 13 13 15 14 10 8 5 7 9 11 4 13 14 13 9 5 7 14 8 11 9 13 13 3 9 1 6 11 12 22 11 9 26 17 15 16 14 13 13 13
17 16 15 15 13 13 14 10 7 6 7 9 11 9 10 11 14 14 12 7 7 10 10 9 13 11 9 5 5 3 3 7 15 3 12 17 19 14 8 15 16 16 16 14 14
16 14 15 14 12 12 12 5 6 7 12 11 8 15 9 12 12 12 11 6 5 7 6 9 7 11 3 13 22 19 17 17 9 7 10 9 6 19 18 21 16 16 15 15 14
16 14 15 12 11 10 7 9 9 13 11 19 9 10 11 12 12 14 13 12 13 11 12 3 12 21 11 20 18 14 5 21 8 17 1 5 8 16 19 22 14 15 17 15 15
17 16 12 10 10 6 12 18 6 8 8 16 10 9 12 13 14 14 16 17 8 9 10 11 10 17 11 9 13 15 15 14 9 14 6 18 13 12 18 11 17 15 17 16 16
17 14 10 8 4 10 15 6 7 4 8 15 14 8 13 18 9 17 17 16 8 14 16 21 14 13 13 3 10 5 7 15 19 13 6 13 4 3 13 17 15 10 15 17 16
16 13 9 7 12 7 6 5 9 4 6 13 14 12 13 17 11 14 17 16 19 17 15 15 7 16 3 6 8 8 19 22 27 27 13 1 13 4 14 15 24 14 14 15 18
16 11 6 6 7 13 3 4 6 8 1 9 11 10 13 15 8 11 14 13 10 13 12 16 5 9 8 9 8 8 20 25 22 7 4 5 5 6 6 6 8 14 16 13 14
15 9 6 9 5 3 6 7 7 9 7 11 11 12 15 15 16 8 11 17 13 14 11 10 12 16 6 16 14 8 14 10 7 2 8 8 10 11 10 27 23 7 8 9 11
17 5 14 8 11 8 6 7 7 2 5 5 4 12 15 15 15 16 11 15 18 17 12 13 13 22 6 7 22 7 14 8 16 16 6 6 7 9 23 23 25 9 10 5 2
17 6 7 8 7 6 8 9 10 6 7 4 7 11 15 16 17 17 15 14 16 16 17 6 11 23 13 17 32 12 12 16 17 18 17 9 6 5 10 19 22 11 9 11 16
5 10 5 7 8 7 7 14 15 9 6 10 12 6 12 14 16 12 13 12 13 17 5 8 3 20 20 14 8 10 13 11 11 6 11 16 5 10 14 17 25 10 5 9 13
6 7 8 8 6 6 10 7 5 5 7 8 12 14 7 14 11 14 16 14 14 9 8 7 12 17 19 12 16 9 12 12 12 9 10 13 6 10 24 26 22 15 9 8 10
9 4 7 6 7 9 11 9 4 10 5 7 7 12 15 14 13 15 8 8 19 6 4 7 13 13 16 15 16 11 15 16 10 11 11 12 4 15 23 20 16 14 11 11 11
7 5 6 8 6 7 7 6 1 11 5 6 5 7 11 9 12 11 15 10 8 6 10 9 11 10 13 13 8 16 13 12 11 14 14 13 5 16 18 14 10 13 11 9 10
7 4 6 6 7 10 7 8 6 7 8 11 10 11 8 10 11 6 15 7 7 1 7 5 14 16 14 21 17 10 19 14 13 12 15 15 5 11 16 15 13 12 14 11 10
6 6 5 3 4 10 7 11 11 6 5 5 6 11 11 13 10 13 8 12 7 10 5 5 14 16 18 21 22 19 20 21 22 18 16 19 23 10 12 16 12 3 11 14 12
7 6 11 9 4 6 5 9 6 10 3 10 7 9 14 7 10 12 16 9 10 7 7 10 12 13 17 18 17 22 21 19 22 23 21 19 15 15 20 16 14 12 12 12 12
7 8 7 6 9 6 3 10 7 12 8 13 12 10 14 14 14 13 14 11 14 14 14 14 12 12 18 21 18 15 18 13 17 15 14 18 8 16 14 17 12 7 7 12 13
Wind_Direction
341 338 342 343 338 337 333 331 333 331 327 322 323 324 324 324 303 237 260 81 169 168 230 246 236 262 253 260 66 173 276 62 100 101 113 126 111 70 92 128 152 84 137 136 145
340 336 341 341 333 332 331 326 328 328 322 318 319 321 325 329 272 256 146 147 148 161 212 223 234 265 256 22 38 72 267 126 142 131 126 96 98 123 127 132 112 126 116 131 149
339 334 340 338 329 329 328 322 323 320 316 315 317 319 322 311 265 16 164 146 164 190 257 225 291 262 286 97 226 171 245 78 134 203 135 124 137 148 136 143 142 126 137 149 153
338 333 337 338 327 324 321 321 315 311 314 313 315 317 317 254 312 119 171 165 175 220 241 250 25 2 291 147 201 154 227 124 163 132 131 108 138 109 95 136 139 138 144 154 161
334 331 331 329 324 316 314 317 309 306 306 308 311 317 280 225 219 137 166 172 188 220 243 323 67 146 310 329 28 287 124 108 124 100 98 161 100 90 87 114 135 140 152 160 169
336 333 331 329 324 311 312 311 303 297 298 299 300 307 250 262 101 148 170 168 206 233 198 147 118 189 277 126 153 281 117 107 116 113 129 108 126 112 115 137 129 149 161 167 173
333 333 331 327 323 313 312 308 299 293 288 288 285 271 258 281 143 168 161 195 204 235 184 211 251 274 187 182 180 247 141 154 140 162 134 151 136 79 138 136 144 158 169 174 179
332 333 331 326 322 312 311 305 296 285 278 267 262 252 275 147 151 182 193 209 151 210 266 265 289 247 128 297 271 104 33 31 142 198 111 85 298 294 172 157 160 171 179 177 183
333 332 330 325 318 310 310 304 292 276 239 207 226 235 257 128 201 193 203 203 193 223 239 285 258 269 274 210 235 36 347 260 250 208 135 123 202 259 237 187 168 181 183 185 177
331 330 329 320 315 312 311 283 292 291 212 204 264 256 221 205 188 190 200 221 197 215 253 249 265 274 274 121 92 37 239 230 282 192 201 182 181 185 235 208 173 178 182 183 186
325 325 324 317 315 318 311 197 194 196 215 230 210 242 152 164 172 187 189 167 262 272 30 324 309 279 155 117 175 195 230 236 158 247 245 166 183 148 174 257 186 176 181 183 199
322 320 319 312 311 316 275 256 5 337 201 239 291 276 133 150 171 191 184 204 204 84 212 333 302 281 267 172 192 201 222 285 222 219 224 285 236 168 197 223 188 189 167 187 192
321 317 309 308 317 263 232 269 331 294 259 198 219 237 150 180 188 185 190 212 75 29 273 197 219 278 244 222 224 100 337 320 302 269 47 25 313 348 297 223 179 194 161 178 192
317 309 304 314 284 209 220 238 266 277 276 156 203 212 167 211 212 176 200 217 114 180 283 287 289 250 266 332 95 94 119 283 290 263 222 166 236 185 344 292 159 200 166 174 189
320 310 291 251 318 233 76 272 321 244 265 137 176 136 176 213 201 205 185 238 258 176 174 216 239 295 18 296 284 172 189 199 239 252 213 88 290 176 258 354 330 186 180 182 181
326 309 282 207 230 272 285 278 237 236 150 161 137 194 205 212 230 183 181 217 266 293 258 267 239 256 252 278 261 186 209 224 225 325 303 87 355 99 19 220 220 221 173 184 183
335 307 222 314 282 191 271 248 224 257 170 150 176 203 218 197 237 189 201 207 218 240 254 301 237 240 315 283 269 233 277 281 212 76 310 78 62 247 172 242 245 151 145 163 185
332 315 217 262 309 285 255 243 263 259 25 52 209 196 212 224 205 226 220 242 239 246 249 243 245 252 221 27 310 194 265 293 293 303 135 258 148 252 215 235 247 72 64 66 326
318 209 224 205 233 275 248 235 229 312 14 350 206 261 202 226 245 206 221 251 251 249 244 15 289 4 300 192 215 266 263 297 303 294 290 159 124 268 60 10 13 67 88 91 62
278 261 125 165 192 228 247 264 306 4 344 310 288 206 269 227 232 232 273 256 246 268 130 170 249 283 235 269 204 244 294 303 286 337 313 307 225 168 152 116 124 284 346 86 78
240 231 122 178 202 232 251 253 349 63 326 287 292 301 269 292 257 237 245 254 261 235 330 334 279 290 293 274 272 246 230 244 249 273 274 286 341 129 151 152 160 175 123 102 88
287 277 132 197 217 220 248 357 1 292 211 265 286 295 308 312 283 294 304 13 15 54 279 307 309 293 285 285 278 257 274 290 301 298 295 305 333 71 140 162 147 131 147 116 107
271 95 149 219 256 260 190 285 297 283 255 271 266 272 304 313 301 296 297 82 57 348 29 344 299 275 260 247 290 339 304 261 290 281 268 278 305 95 93 92 119 124 117 110 103
278 198 153 213 265 284 351 275 300 144 286 300 302 324 308 287 281 274 288 295 145 80 71 315 278 293 293 300 320 310 301 314 295 296 306 306 78 149 132 127 132 136 136 129 123
261 24 17 309 74 350 341 326 299 294 143 305 291 260 277 289 285 281 254 265 196 164 186 245 266 276 292 303 312 311 307 308 307 305 287 298 300 184 107 94 66 152 139 138 139
341 346 344 290 265 278 243 285 306 318 359 297 237 286 306 279 298 298 309 327 328 192 237 266 278 291 280 270 259 271 269 272 268 274 276 280 277 44 102 122 146 183 158 141 152
7 341 289 299 271 249 12 337 341 342 313 280 299 321 309 15 349 330 326 333 313 300 287 285 292 294 287 299 299 283 279 297 316 264 256 262 313 114 84 70 294 203 153 144 132